This is the latest recevied weather packets stored in our database for station/object OM8AGG-15. If no packets are shown the sender has not sent any weather packets the latest 10 day(s).
| Time | Temp. | Humidity | Pressure | Rain* | Wind** | Luminosity | Snow |
|---|---|---|---|---|---|---|---|
| 1777552730 | 10° C | 29% | 1026 hPa | - | - | - | - |
| 1777551831 | 9.44° C | 28% | 1026.2 hPa | - | - | - | - |
| 1777550930 | 9.44° C | 29% | 1026.4 hPa | - | - | - | - |
| 1777550032 | 9.44° C | 29% | 1026.5 hPa | - | - | - | - |
| 1777549130 | 8.89° C | 29% | 1026.6 hPa | - | - | - | - |
| 1777548232 | 8.89° C | 30% | 1026.4 hPa | - | - | - | - |
| 1777547333 | 8.89° C | 30% | 1026.9 hPa | - | - | - | - |
| 1777546432 | 8.33° C | 30% | 1026.8 hPa | - | - | - | - |
| 1777545529 | 8.33° C | 30% | 1026.7 hPa | - | - | - | - |
| 1777543729 | 8.33° C | 30% | 1027.2 hPa | - | - | - | - |
| 1777542835 | 8.33° C | 30% | 1027.2 hPa | - | - | - | - |
| 1777541932 | 7.78° C | 31% | 1027.4 hPa | - | - | - | - |
| 1777541028 | 8.33° C | 30% | 1027.3 hPa | - | - | - | - |
| 1777540131 | 7.22° C | 31% | 1027.4 hPa | - | - | - | - |
| 1777539227 | 6.67° C | 32% | 1027.5 hPa | - | - | - | - |
| 1777538329 | 7.22° C | 32% | 1027.5 hPa | - | - | - | - |
| 1777537427 | 6.67° C | 34% | 1027.7 hPa | - | - | - | - |
| 1777536527 | 7.22° C | 34% | 1027.7 hPa | - | - | - | - |
| 1777535632 | 7.22° C | 35% | 1027.8 hPa | - | - | - | - |
| 1777534728 | 6.11° C | 37% | 1027.7 hPa | - | - | - | - |
| 1777532930 | 6.11° C | 39% | 1028 hPa | - | - | - | - |
| 1777532030 | 5.56° C | 40% | 1028 hPa | - | - | - | - |
| 1777531131 | 5° C | 41% | 1028.1 hPa | - | - | - | - |
| 1777530228 | 5° C | 42% | 1027.9 hPa | - | - | - | - |
| 1777529326 | 4.44° C | 43% | 1028 hPa | - | - | - | - |
* Rain since midnight (hover to see other rain measurements)
** Current wind speed in m/s (hover to see current wind gust speed)